Regional Weather Roundup
Issued by NWS

Home | Current Version | Previous Version | Text Only | Print | Product List | Glossary Off
Versions: 1 2 3 4 5 6 7 8 9 10 11 12 13 14 15 16 17 18 19 20 21 22 23 24 25 26 27 28 29 30 31 32 33 34 35 36 37 38 39 40 41 42 43 44 45 46 47 48 49 50

000
ASUS43 KLOT 311108
RWRIL

ILLINOIS REGIONAL WEATHER ROUNDUP
NATIONAL WEATHER SERVICE CHICAGO/ROMEOVILLE IL
600 AM CDT MON AUG 31 2015

NOTE: "FAIR" INDICATES FEW OR NO CLOUDS BELOW 12,000 FEET WITH NO
SIGNIFICANT WEATHER AND/OR OBSTRUCTIONS TO VISIBILITY.

* THESE STATIONS ARE NOT UNDER NWS QUALITY CONTROL. THEY ALSO MAY NOT
  REPORT WEATHER SUCH AS PRECIPITATION OR FOG.

ILZ001-002-007-009-015-016-024-311200-
NORTHWEST ILLINOIS

CITY           SKY/WX    TMP DP  RH WIND       PRES   REMARKS
MOLINE         CLEAR     60  58  92 E5        30.03R FOG
STERLING*        N/A    N/A N/A N/A MISG        N/A
SAVANNA*       FOG       59  57  95 CALM      30.04R VSB 1/2
$$

ILZ003-004-008-010-011-017-018-311200-
NORTH CENTRAL ILLINOIS

CITY           SKY/WX    TMP DP  RH WIND       PRES   REMARKS
ROCKFORD       PTCLDY    59  56  89 CALM      30.06S FOG
FREEPORT*      CLOUDY    55  55  99 CALM      30.06S FOG
ROCHELLE*        N/A     56  56  98 CALM      30.06R FOG
DE KALB*       MOCLDY    58  57  99 CALM      30.07R FOG
PERU*          CLEAR     61  59  95 NE3       30.06R FOG
$$

ILZ005-006-012>014-019>023-311200-
NORTHEAST ILLINOIS

CITY           SKY/WX    TMP DP  RH WIND       PRES   REMARKS
CHICAGO-OHARE  FOG       62  62 100 CALM      30.05R VSB 1/8
CHICAGO-MIDWAY PTCLDY    66  63  90 CALM      30.05R FOG
AURORA         FOG       58  58 100 CALM      30.05S VSB 1/4
LANSING*       CLOUDY    62  62 100 CALM      30.05R FOG
JOLIET*        FOG       61  61  99 CALM      30.06R VSB 1/4
WAUKEGAN       FOG       59  59 100 CALM      30.05R VSB 1/2
DUPAGE AIRPORT FOG       60  58  92 N3        30.05R VSB 1/4
KANKAKEE*      FOG       63  62  99 CALM      30.06R VSB<1/4
WHEELING       FOG       61  60  97 CALM      30.06R VSB<1/4
MORRIS*        FOG       60  60  98 CALM      30.04S VSB 3/4
ROMEOVILLE*    FOG       61  61 100 CALM      30.05R VSB<1/4
NORTHERLY ISL    N/A     66  64  93 S1          N/A
$$

LMZ740>746-311200-
SOUTHERN LAKE MICHIGAN

STATION/POSITION SKY/WX   TEMP    WIND        PRES    VSBY  WAVE
                          AIR SEA DIR/SP/G                  HT/PER
                          (F)     (DEG/KT/KT) (MB)    (MI)  (FT/S)
SOUTHERN BUOY              68     220/  4     1017.1R
WILMETTE HARBOR            60 59     CALM       N/A           0
HARRISON CRIB              68     180/  4/  5   N/A
BURNHAM HARBOR             66     210/  1/  3   N/A
BURNS HARBOR               68     210/  2/  3 1017.6S
MICHIGAN CITY              67     130/  2/  3   N/A
MICHIGAN CITY 6N           69 71  200/  2/  4   N/A           0
ST. JOSEPH                 68 71  200/  4/  4   N/A           0
$$

ILZ025>027-034>036-040-047-049-050-058-095>099-311200-
WEST-CENTRAL ILLINOIS

CITY           SKY/WX    TMP DP  RH WIND       PRES   REMARKS
QUINCY         PTCLDY    69  68  96 SE3       30.02R FOG
GALESBURG*     CLEAR     65  65  97 SE3       30.04R FOG
MACOMB*        FOG       61  61 100 CALM      30.05R VSB 1/2
JACKSONVILLE*  PTCLDY    71  70  95 S3        30.03R FOG
PITTSFIELD*      N/A     69  68  96 CALM      30.03S FOG
$$

ILZ028>032-037-038-041>044-048-051>054-059>061-311200-
CENTRAL ILLINOIS

CITY           SKY/WX    TMP DP  RH WIND       PRES   REMARKS
PONTIAC          N/A     62  62 100 CALM      30.06R FOG
BLOOMINGTON    CLEAR     65  65 100 S5        30.07R FOG
DECATUR        CLEAR     69  66  90 S3        30.05R
PEORIA         CLEAR     68  64  87 E5        30.04R FOG
LACON*         CLEAR     60  59  96 CALM      30.04R FOG
LINCOLN*       CLEAR     65  64  94 CALM      30.04R FOG
SPRINGFIELD    CLEAR     70  68  93 S3        30.04R
TAYLORVILLE    CLEAR     68  68 100 CALM      30.04S FOG
$$

ILZ033-039-045-046-055>057-062-063-311200-
EAST-CENTRAL ILLINOIS

CITY           SKY/WX    TMP DP  RH WIND       PRES   REMARKS
CHAMPAIGN      CLEAR     65  63  93 E3        30.06R FOG
RANTOUL*       CLEAR     67  66  96 CALM      30.06R FOG
MATTOON        MOCLDY    70  67  90 S6        30.05R FOG
PARIS*           N/A     66  65  99 CALM      30.07S FOG
$$

ILZ079-100>102-311200-
SOUTHWEST ILLINOIS

CITY           SKY/WX    TMP DP  RH WIND       PRES   REMARKS
ALTON          CLEAR     69  68  97 CALM      30.04R
BELLEVILLE     PTCLDY    70  70 100 E2        30.03R
CAHOKIA*       CLEAR     71  68  90 S3        30.03R
SPARTA*        CLOUDY    70  68  94 SE3       30.06R
$$

ILZ064>066-069>071-074>076-080>082-084>086-088>090-092>094-311200-
SOUTH-CENTRAL ILLINOIS

CITY           SKY/WX    TMP DP  RH WIND       PRES   REMARKS
CARBONDALE     PTCLDY    68  66  93 S5        30.07R
CAIRO*         MOCLDY    66  66 100 CALM      30.08R
EFFINGHAM*     MOCLDY    68  66  92 CALM      30.07R
MARION         PTCLDY    68  66  94 S5        30.08R
MT. VERNON     PTCLDY    68  63  83 CALM      30.08R
SALEM*         CLOUDY    72  68  88 S3        30.06R
METROPOLIS*      N/A     65  65 100 CALM      30.09R FOG
$$

ILZ067-068-072-073-078-083-087-091-311200-
SOUTHEAST ILLINOIS

CITY           SKY/WX    TMP DP  RH WIND       PRES   REMARKS
LAWRENCEVILLE  PTCLDY    67  65  93 S5        30.08R FOG
FLORA*         PTCLDY    67  66  99 CALM      30.07R FOG
FAIRFIELD*     PTCLDY    67  66  98 CALM      30.06S
HARRISBURG*    CLEAR     65  64  99 CALM      30.08R FOG
ROBINSON*      PTCLDY    64  63  97 SE3       30.08R FOG
CARMI*         CLEAR     65  65 100 S3        30.07R FOG
$$

ABBREVIATIONS USED IN REMARKS
   TC - TEMPERATURE IN CELSIUS
  WCI - WIND CHILL INDEX
   HX - HEAT INDEX
  VSB - VISIBILITY
$$



USA.gov is the U.S. government's official web portal to all federal, state and local government web resources and services.